Regional Weather Roundup
Issued by NWS

Home | Current Version | Previous Version | Graphics & Text | Print | Product List | Glossary On
Versions: 1 2 3 4 5 6 7 8 9 10 11 12 13 14 15 16 17 18 19 20 21 22 23 24 25 26 27 28 29 30 31 32 33 34 35 36 37 38 39 40 41 42 43 44 45 46 47 48 49 50
000
ASUS45 KBOU 210707
RWRCO

WEATHER ROUNDUP FOR COLORADO
NATIONAL WEATHER SERVICE DENVER/BOULDER CO
1200 AM MST SUN DEC 21 2014

NOTE: "FAIR" INDICATES FEW OR NO CLOUDS BELOW 12000 FEET WITH NO
SIGNIFICANT WEATHER AND/OR OBSTRUCTIONS TO VISIBILITY.

COZ001>005-013-030-031-210800-
...NORTHWEST COLORADO...

CITY           SKY/WX    TMP DP  RH WIND       PRES   REMARKS
CRAIG          MOCLDY    21  20  96 SE3       30.04F FOG
HAYDEN         CLOUDY    27  23  86 CALM      30.03S
MEEKER         CLOUDY    30  25  81 CALM      30.06R
MOUNT WERNER   NOT AVBL
STEAMBOAT SPGS CLOUDY    26  25  96 CALM      30.03S
WALDEN         CLOUDY    28  21  74 S17       29.95S WCI  16
$$

COZ006>008-011-210800-
...WEST CENTRAL VALLEYS...

CITY           SKY/WX    TMP DP  RH WIND       PRES   REMARKS
GRAND JUNCTION CLOUDY    33  31  92 CALM      30.12F
MONTROSE       CLOUDY    32  28  85 CALM      30.13F
EAGLE          CLOUDY    28  27  93 CALM      30.08F
RIFLE          CLOUDY    30  28  92 SE3       30.11S
DELTA          CLOUDY    35  29  78 NE5       30.13S WCI  31
NUCLA          CLOUDY    32  28  86 CALM      30.15R
$$

COZ017>023-064>068-210800-
...SOUTHWEST COLORADO...

CITY           SKY/WX    TMP DP  RH WIND       PRES   REMARKS
DURANGO        CLOUDY    30  26  85 CALM      30.09F
CORTEZ         CLOUDY    32  29  88 NE5       30.11F WCI  27
PAGOSA SPRINGS CLOUDY    29  26  90 CALM      30.09F
TELLURIDE      CLOUDY    27  24  87 SE3       30.10F
WOLF CREEK PAS SNOW      16  16 100 MISG      30.07F VSB<1/4
$$

COZ009-010-012-014-032>034-037-058>063-210800-
...CENTRAL COLORADO...

CITY           SKY/WX    TMP DP  RH WIND       PRES   REMARKS
ASPEN          FLURRIES  24  22  91 N3        30.06S
BUENA VISTA    CLEAR     25  17  70 CALM      29.96F
COPPER MTN     CLOUDY    19  14  79 W24G32    29.99F WCI   2
BERTHOUD PASS  CLOUDY    10   5  79 MISG      29.93F
COTTONWOOD PAS CLOUDY    30  18  59 NW7G29    29.96F WCI  23
GUNNISON       MOCLDY    21  18  86 N3        30.10F
KREMMLING      CLOUDY    30  25  80 NW6       30.02F WCI  24
LEADVILLE      CLOUDY    22  17  81 N12       29.99F HAZE    WCI  10
SALIDA         CLEAR     37  20  51 W15G24    30.02F
SUNLIGHT       LGT SNOW  23  21  93 CALM      30.05S
WILKERSON PASS PTCLDY    16  12  86 W8        29.97F WCI   5
$$

COZ069>075-210800-
...SAN LUIS VALLEY/SANGRE DE CRISTO MOUNTAINS...

CITY           SKY/WX    TMP DP  RH WIND       PRES   REMARKS
ALAMOSA        PTCLDY    16  11  80 NE6       30.04R WCI   7
LA VETA PASS   PTCLDY    21  18  86 S13G22    29.96F WCI   9
SAGUACHE       MOCLDY    25  18  74 E3        30.03F
$$

COZ035-036-038>040-210800-
...NORTHERN COLORADO FRONT RANGE...

CITY           SKY/WX    TMP DP  RH WIND       PRES   REMARKS
DENVER INTL AP PTCLDY    32  21  64 SW8       29.89F WCI  25
DMNS CITY PARK   N/A     32  22  64 S6        29.90F WCI  27
AURORA         MOCLDY    29  19  68 S7        29.91F WCI  21
FRONT RANGE AP CLEAR     37  25  60 SW7       29.90F
ERIE MUNI ARPT   N/A     25  21  82 CALM      29.90F
BOULDER MUN AP PTCLDY    41  21  45 NW9       29.89F
CENTENNIAL     PTCLDY    28  21  75 SE5       29.90F WCI  23
BROOMFIELD     PTCLDY    37  21  52 W14       29.90F
FORT COLLINS   CLEAR     30  18  59 CALM      29.90F
LONGMONT       CLEAR     25  20  82 CALM      29.92F
$$

COZ041-046-047-076>085-087-088-210800-
...PIKES PEAK/PALMER DIVIDE AND SOUTHERN FOOTHILLS...

CITY           SKY/WX    TMP DP  RH WIND       PRES   REMARKS
COLO. SPRINGS  PTCLDY    29  19  66 N3        29.92F
A. F. ACADEMY  PTCLDY    28  18  65 VRB3      29.91F
ELLICOTT       NOT AVBL
FALCON         PTCLDY    28  18  68 NW6       29.92F WCI  21
FORT CARSON    CLEAR     34  19  53 W5        29.91S WCI  30
LIMON          PTCLDY    23  20  88 CALM      29.90F
MONUMENT HILL  CLEAR     25  21  86 S6        29.91S WCI  18
TRINIDAD       MOCLDY    34  17  50 W8        29.91F WCI  27
$$

COZ042>045-048>051-090-091-210800-
...NORTHEAST COLORADO...

CITY           SKY/WX    TMP DP  RH WIND       PRES   REMARKS
GREELEY ARPT   PTCLDY    25  10  54 NW7       29.89F WCI  17
AKRON          CLOUDY    31  23  72 S8        29.87F WCI  23
BURLINGTON     CLOUDY    32  27  81 W5        29.90F WCI  27
WRAY           CLOUDY    32  28  85 SW7       29.90F WCI  26
STERLING       MOCLDY    25  23  93 W5        29.87F WCI  19
HOLYOKE        MOCLDY    36  30  80 SW6       29.89F
FORT MORGAN    MOCLDY    22  18  85 W12       29.90S WCI  11
$$

COZ086-089-092>099-210800-
...SOUTHEAST COLORADO...

CITY           SKY/WX    TMP DP  RH WIND       PRES   REMARKS
PUEBLO         PTCLDY    25  17  72 NW5       29.91F WCI  19
LA JUNTA       CLOUDY    31  27  85 MISG      29.90F
LAMAR          CLOUDY    29  26  89 E5        29.88F WCI  24
SPRINGFIELD      N/A     28  25  88 SW3       29.89F
$$



USA.gov is the U.S. government's official web portal to all federal, state and local government web resources and services.